Cloud_Cover
100 100 100 100 100 100 100 100 100 100 100 100 100 100 100 100 100 100 100 100 100 100 100 100 100 100 100 100 14 19 5 5 52 100 100 57 98 70 30 64 5 31 13 76 83 100 91 45 92 100 25 10 85 96
100 100 100 100 100 100 100 100 100 100 100 100 100 100 100 100 100 100 100 100 100 100 100 100 100 100 100 100 85 68 19 8 6 41 84 94 100 95 91 47 56 6 5 5 7 5 91 100 100 52 5 72 100 100
100 100 100 100 100 100 100 100 100 100 100 74 67 100 100 100 100 100 100 100 100 100 100 100 100 100 100 100 99 42 7 11 5 5 6 90 100 15 100 39 79 80 5 5 38 5 76 82 70 27 58 96 100 96
100 100 100 100 100 100 100 100 99 100 100 100 69 9 90 100 100 100 100 100 99 100 100 100 100 100 100 100 96 93 83 10 7 5 100 100 100 62 96 5 36 53 18 22 55 23 64 80 81 80 94 100 98 90
100 100 100 100 100 100 100 100 100 100 100 100 94 98 5 31 82 100 100 100 100 100 100 100 100 100 100 100 100 93 81 54 39 100 100 92 100 29 65 89 88 98 28 85 98 89 99 100 99 100 100 83 78 33
100 100 100 100 100 100 100 100 100 100 100 100 100 100 100 98 97 91 100 100 100 100 100 100 99 99 100 100 43 49 38 59 32 32 88 48 5 6 100 100 100 68 84 81 54 100 100 100 75 68 80 80 23 90
99 100 100 100 100 100 100 100 100 100 100 100 100 100 100 100 100 100 100 100 100 100 100 100 71 100 100 74 49 71 100 100 70 78 99 91 28 74 100 100 96 41 55 100 100 100 100 97 99 19 44 5 5 5
100 100 100 100 100 100 100 100 100 100 100 100 100 100 100 100 100 100 100 100 100 100 100 100 97 100 100 100 100 100 100 100 89 94 100 98 75 100 100 82 80 57 79 100 93 100 100 85 11 44 76 20 5 5
100 100 100 99 100 100 100 100 100 100 100 100 100 100 100 100 100 100 100 100 100 100 100 100 100 100 100 100 100 100 100 100 82 100 100 100 100 100 98 100 77 99 100 100 90 84 5 38 77 25 33 14 18 46
100 100 100 100 100 100 100 100 100 100 100 100 100 100 100 100 100 100 100 100 100 100 99 100 100 100 100 100 100 100 100 100 100 96 99 100 100 100 100 100 100 100 100 100 59 29 28 68 99 79 32 57 92 74
100 100 100 100 100 99 100 100 100 100 100 100 100 100 100 100 100 100 100 100 100 100 100 100 100 100 100 100 100 100 100 100 100 96 100 100 100 100 100 100 100 100 100 88 24 51 76 9 12 44 74 56 6 20
100 100 100 100 100 99 100 100 100 100 100 100 100 100 100 100 100 100 100 100 100 100 100 100 100 100 100 100 100 100 100 100 100 74 98 100 100 100 100 100 100 100 54 10 45 28 5 5 15 53 7 5 5 50
100 100 97 100 100 100 100 100 100 100 100 100 100 100 100 100 100 100 100 100 100 100 100 100 100 100 100 100 100 100 100 100 45 100 78 100 70 61 95 95 99 20 21 5 5 8 47 89 68 24 18 6 5 60
87 98 100 100 99 100 100 100 100 100 100 100 100 100 100 100 100 100 100 100 100 100 100 100 100 100 100 100 100 100 98 93 100 100 51 72 26 18 50 50 74 47 5 5 6 36 24 5 25 60 24 38 27 5
74 86 27 100 100 100 100 100 100 100 100 100 100 100 100 100 100 100 100 100 100 100 100 100 100 100 100 100 97 98 98 87 89 100 83 28 6 22 14 38 14 5 5 6 11 22 33 74 94 91 90 50 17 6
37 98 48 86 100 100 100 100 100 100 100 100 100 100 100 100 100 100 100 100 100 100 100 100 100 100 100 100 100 100 100 100 100 57 45 26 40 90 100 20 5 27 70 91 96 74 100 66 40 97 100 15 5 19
66 100 94 17 62 100 100 100 100 100 100 100 100 100 100 100 100 100 100 100 100 100 100 100 100 100 100 100 100 100 100 91 16 20 80 100 100 96 64 91 100 100 100 100 100 100 98 90 91 73 17 5 29 84
100 100 100 99 100 100 100 88 98 98 100 100 100 100 100 100 100 100 100 100 100 100 100 100 100 100 100 100 100 100 100 76 98 100 100 100 100 100 100 100 100 100 100 100 100 98 100 100 92 6 5 5 92 100
75 100 100 100 100 100 100 100 100 99 68 95 100 100 100 100 100 100 100 100 100 100 100 100 100 100 100 100 100 80 100 100 100 100 100 100 100 100 100 100 100 100 100 100 55 68 27 5 5 5 7 36 93 99
100 100 100 100 99 98 98 100 100 96 96 100 100 100 100 100 100 100 100 100 100 100 100 100 100 100 100 100 100 100 100 100 100 100 100 100 100 100 100 100 100 60 31 9 5 5 5 5 5 12 49 69 99 55
100 100 100 100 100 96 78 39 6 70 100 91 97 100 100 100 100 100 100 100 100 100 100 100 100 100 100 100 100 100 100 100 100 100 100 100 100 100 99 6 2 5 5 5 30 5 5 9 5 21 79 86 100 97
100 100 100 100 100 100 100 98 7 5 6 51 63 90 99 100 100 100 99 100 100 100 100 100 100 100 100 100 100 100 100 100 100 100 94 68 23 4 5 4 5 8 5 50 5 53 17 5 18 30 32 97 96 91
100 100 100 100 100 100 96 38 23 5 16 72 53 41 45 82 76 80 98 92 24 5 5 19 8 23 33 23 11 15 21 26 7 0 3 5 2 3 5 5 5 48 24 6 5 13 33 7 19 96 86 87 100 100
100 100 100 100 100 100 100 100 100 66 62 34 6 5 5 58 88 100 87 71 5 5 3 1 0 1 3 5 2 0 4 4 5 5 4 5 1 0 1 5 5 5 5 5 13 52 61 99 73 88 98 100 100 100
100 100 100 100 100 100 74 90 94 100 80 88 89 45 65 89 78 96 63 3 5 2 19 0 0 0 0 0 0 0 0 0 8 5 5 76 92 26 5 5 5 5 6 97 99 90 98 100 92 90 99 100 100 100
100 100 100 100 100 95 88 91 98 97 97 90 86 87 91 82 25 3 0 2 5 5 72 68 3 0 0 1 0 2 5 72 66 5 1 5 5 19 62 100 91 93 96 79 99 99 100 100 99 93 100 100 100 100
90 83 91 35 42 47 73 95 85 90 98 82 66 92 84 18 5 0 0 10 7 36 15 11 8 5 5 20 38 79 87 72 46 9 6 28 66 83 90 93 100 100 100 99 100 100 90 98 100 100 100 100 100 100
95 77 52 83 66 44 15 36 28 61 7 5 23 43 5 5 2 24 55 83 96 92 98 100 100 94 88 78 75 96 100 100 100 100 100 100 100 100 100 100 100 100 100 100 100 97 98 100 100 100 100 100 100 100
100 92 60 99 100 89 39 5 5 5 4 5 5 13 83 54 96 91 90 97 99 85 62 46 54 94 96 95 99 94 100 99 97 85 100 100 100 100 100 100 100 100 100 100 93 90 96 85 91 94 93 96 100 100
79 80 76 100 99 44 5 5 5 36 35 55 74 72 87 99 100 100 100 99 94 100 100 99 100 100 100 100 99 100 100 100 100 100 100 100 100 100 100 100 100 100 100 100 100 100 100 87 77 99 88 93 100 100
89 100 96 87 68 16 47 80 76 78 45 9 33 11 44 100 100 100 100 100 100 100 100 100 100 100 100 100 100 100 100 100 100 100 100 100 100 100 100 100 100 100 100 100 100 100 100 99 100 100 100 100 100 100
95 98 98 99 44 46 51 58 70 68 33 8 29 82 100 100 100 100 100 100 100 100 100 100 100 100 100 100 100 100 100 100 100 100 100 100 100 100 100 100 100 100 100 100 100 100 100 100 100 100 100 100 100 100
99 100 100 99 100 34 37 4 2 4 12 5 73 100 100 100 99 100 100 99 100 100 100 100 100 100 100 100 100 100 100 100 100 100 100 100 100 100 100 100 100 100 100 100 100 100 100 100 100 100 100 100 100 100